Terminal Aerodrome Forecast
Issued by NWS

Home | Current Version | Previous Version | Text Only | Print | Product List | Glossary On
Versions: 1 2 3 4 5 6 7 8 9 10 11 12 13 14 15 16 17 18 19 20 21 22 23 24 25 26 27 28 29 30 31 32 33 34 35 36 37 38 39 40 41 42 43 44 45 46 47 48 49 50
000
FTAK31 PANC 040717 AAA
TAFADU
TAF AMD
PADU 040717Z 0407/0506 34014G22KT 5SM BR SCT003 BKN005
      TEMPO 0407/0411 3SM -RA BR BKN003
     FM041500 33010KT 4SM BR FEW003 BKN007
     FM042200 34013KT P6SM BKN015=

USA.gov is the U.S. government's official web portal to all federal, state and local government web resources and services.